Other Public Products
Issued by NWS Grand Forks, ND

Home | Current Version | Previous Version | Text Only | Print | Product List | Glossary Off
Versions: 1 2 3 4 5 6 7 8 9 10 11 12 13 14 15 16 17 18 19 20 21 22 23 24 25 26 27 28 29 30 31 32 33 34 35 36 37 38 39 40 41 42 43 44 45 46 47 48 49 50

000
FPUS83 KFGF 261431
OPUFGF
PRAIRIE TO PINES WEATHER ROUNDUP
NATIONAL WEATHER SERVICE EASTERN NORTH DAKOTA/GRAND FORKS ND
800 AM CST FRI DEC 26 2014

 **SATELLITE DATA USED TO AUGMENT SKY COVER AT AUTOMATED STATIONS**
 *****  WEATHER ACROSS EASTERN NORTH DAKOTA  *****

CITY           SKY/WX    TMP DP  RH WIND       PRES   REMARKS
GRAND FORKS    CLOUDY    24  17  74 N9        30.14R WCI  14
GRAND FORKS AF MOCLDY    21  19  93 NW8       30.14R WCI  12
GRAND CITY NWS   N/A     23 N/A N/A N6          N/A  WCI  16
BUXTON           N/A     24  20  84 N8          N/A  WCI  15
DEVILS LAKE    CLOUDY    12   7  79 NW14      30.13S WCI  -3
FARGO          MOCLDY    23  18  81 N10       30.13R WCI  12
WAHPETON ARPT  CLOUDY    23  19  86 N17       30.11S WCI   9
$$

 *****  WEATHER ACROSS CENTRAL AND WESTERN NORTH DAKOTA  *****

CITY           SKY/WX    TMP DP  RH WIND       PRES   REMARKS
JAMESTOWN      CLOUDY    18  14  84 NW15      30.12R WCI   4
BISMARCK       CLOUDY    13   9  84 NW12      30.17R WCI  -1
MINOT          LGT SNOW   7   3  84 CALM      30.17R
MINOT AFB      CLOUDY     5   3  91 NW8       30.18R WCI  -8
GARRISON         N/A     12   7  80 N12       30.15R WCI  -2
WILLISTON      CLOUDY    12   8  84 N8        30.15R WCI   0
DICKINSON      CLOUDY    17  12  80 NW3       30.08R
HETTINGER      CLOUDY    16  10  77 CALM      30.11R
$$

 *****  OTHER OBSERVATIONS NORTHEAST NORTH DAKOTA  *****

CITY           SKY/WX    TMP DP  RH WIND       PRES   REMARKS
WALHALLA       FLURRIES  12  10  92 NW7       30.17S WCI   2
LANGDON        CLOUDY     5   1  85 NW15      30.12S WCI -13
CAVALIER       CLOUDY    16  10  79 NW15      30.17R WCI   1
GRAFTON        NOT AVBL
CANDO          CLOUDY     7   3  85 NW9       30.16S WCI  -7
FORT TOTTEN    NOT AVBL
ROLLA          FAIR      -2  -8  78 NW14      30.14R WCI -21
RUGBY          FAIR      -2  -6  84 NW12      30.18R WCI -20
 ***** THE ABOVE OBSERVATIONS ARE NON NWS ARE NOT QUALITY
        CONTROLLED AND MAY MIS-REPORT RAIN FOR SNOW...
$$

 *****  OTHER OBSERVATIONS SOUTHEAST NORTH DAKOTA *****

CITY           SKY/WX    TMP DP  RH WIND       PRES   REMARKS
COOPERSTOWN    NOT AVBL
VALLEY CITY    CLOUDY    21  21 100 N13       30.12R WCI   9
OAKES            N/A     23  23 100 N13       30.12R FOG     WCI  11
GWINNER        CLOUDY    27  25  93 N8        30.12R WCI  18
BUFFALO        NOT AVBL
WYNDMERE         N/A     25  19  80 N12         N/A  WCI  14
 ***** THE ABOVE OBSERVATIONS ARE NON NWS ARE NOT QUALITY
       CONTROLLED AND MAY MIS-REPORT RAIN FOR SNOW...
$$

  *****  WEATHER ACROSS NORTHERN MINNESOTA  *****

CITY           SKY/WX    TMP DP  RH WIND       PRES   REMARKS
FLAG ISLAND    CLOUDY    18  16  93 NW7       30.08R WCI   8
WARROAD        CLOUDY    18  16  93 W5        30.10R WCI  11
ROSEAU         CLOUDY    21  16  79 NW3       30.11R
HALLOCK        LGT SNOW  21  19  93 NW3       30.14R
THF RVR FALLS  CLOUDY    21  19  93 NW9       30.11R WCI  11
HALSTAD          N/A     22  18  82 N8          N/A  WCI  13
FOSSTON        CLOUDY    21  19  93 NW6       30.09R FOG     WCI  14
BAUDETTE       CLOUDY    22  17  81 NW9       30.07R WCI  12
WASKISH        CLOUDY    21  18  86 CALM      30.07R
CROOKSTON      FLURRIES  21  19  93 N9        30.14R WCI  11
$$
  *****  WEATHER ACROSS CENTRAL AND WEST MINNESOTA  *****

CITY           SKY/WX    TMP DP  RH WIND       PRES   REMARKS
BEMIDJI        CLOUDY    23  19  83 N7        30.05R WCI  15
PARK RAPIDS    CLOUDY    25  19  78 N8        30.03R WCI  16
WADENA         CLOUDY    23  19  86 N7        30.04R WCI  15
DETROIT LAKES  CLOUDY    25  23  93 N5        30.08R WCI  19
MOORHEAD       MOCLDY    23  21  93 N10       30.13R WCI  12
FERGUS FALLS   CLOUDY    23  21  93 N13       30.11R FOG     WCI  11
ELBOW LAKE     CLOUDY    25  22  88 N10       30.06R WCI  15
MORRIS MN      PTCLDY    27  25  93 NW14      30.05R WCI  15
STAPLES        CLOUDY    25  23  93 N8        30.04R WCI  16
WHEATON        CLOUDY    21  19  93 NW15G21   30.12R FOG     WCI   8
$$
  *****  WEATHER ELSEWHERE ACROSS MINNESOTA  *****

CITY           SKY/WX    TMP DP  RH WIND       PRES   REMARKS
DULUTH         FLURRIES  27  22  81 N7        29.98R WCI  19
INTRNTL FALLS  CLOUDY    21  18  88 NW3       30.04R
ELY            CLOUDY    25  23  93 CALM      29.98S
CLOQUET        FLURRIES  27  23  86 N7        30.00R WCI  19
BRAINERD       CLOUDY    26  21  81 N8        30.02R WCI  18
HIBBING        CLOUDY    27  23  85 NW3       30.00R
ALEXANDRIA     CLOUDY    26  22  84 N9        30.03R WCI  17
SAINT CLOUD    CLOUDY    31  24  75 N8        30.01R WCI  23
MINNEAPOLIS    CLOUDY    32  29  88 N13       29.97R WCI  22
$$

  *****  WEATHER ACROSS SOUTH DAKOTA  *****

CITY           SKY/WX    TMP DP  RH WIND       PRES   REMARKS
SIOUX FALLS    CLOUDY    27  23  85 N18       30.00S WCI  14
BROOKINGS      NOT AVBL
WATERTOWN      CLOUDY    22  18  85 N18G24    30.03R WCI   7
HURON          MIX PCPN  23  20  88 N16G24    30.09S WCI  10
SISSETON         N/A     23  21  92 N16       30.09R WCI  10
ABERDEEN       CLOUDY    24  20  84 N9        30.12R WCI  14
MITCHELL       CLOUDY    25  22  88 N13       30.07S WCI  14
PIERRE         CLOUDY    24  19  81 N15       30.10R WCI  11
MOBRIDGE       CLOUDY    23  17  78 N13       30.10R WCI  11
RAPID CITY     CLOUDY    19  15  84 N12       30.07R WCI   7
$$

  *****  SOME WEATHER IN NEARBY STATES *****

CITY           SKY/WX    TMP DP  RH WIND       PRES   REMARKS
GLASGOW MT     MOCLDY    17  13  84 E10       30.07R WCI   5
GREAT FALLS MT CLOUDY    23  20  88 NW16      30.03R WCI  10
CHEYENNE WY    LGT SNOW  12   8  84 N6        29.88R VSB 1   WCI   3
SCOTTSBLUFF NE FLURRIES  18  14  84 W3        30.01S
OMAHA NE       CLOUDY    34  32  92 N14       29.96R FOG     WCI  25
DES MOINES IA  MOCLDY    34  29  82 S6        29.90R
DAVENPORT IA   MOCLDY    40  32  73 S14       29.94R
CHICAGO IL     PTCLDY    37  32  82 S9        30.00R
EAU CLAIRE WI  CLOUDY    32  29  88 NE5       29.92R
LA CROSSE WI   CLEAR     24  22  91 CALM      29.91R
$$

  *****  SOME NATIONAL WEATHER *****

CITY           SKY/WX    TMP DP  RH WIND       PRES   REMARKS
LA GUARDIA NY  MOSUNNY   42  28  57 W12       30.25R
RALEIGH NC     MOSUNNY   35  32  88 CALM      30.36R
ATLANTA GA     MOSUNNY   44  35  70 CALM      30.32R
NEW ORLEANS LA PTSUNNY   54  49  83 E7        30.21R
OKLAHOMA CITY  CLOUDY    47  42  83 SE8       29.89R
ALBUQUERQUE NM FOG       30  30 100 SW5       29.78R VSB 1/4
SALT LAKE CITY CLOUDY    24  20  84 N9        29.93R WCI  14
LOS ANGELES CA CLEAR     50  16  25 N3        30.00R
BOISE ID       CLOUDY    29  23  78 W5        30.11R WCI  24
SEATTLE WA     FOG       37  35  92 SE3       30.34R VSB 1/4
$$

*** WEATHER ACROSS MANITOBA...SASKATCHEWAN AND ONTARIO ***
                ***ONTARIO***

CITY           SKY/WX    TMP DP  RH WIND       PRES   REMARKS
GERALDTON      LGT SNOW N/A N/A N/A W2          N/A
THUNDER BAY    CLOUDY    28  25  86 W2        30.00R
SIOUX LOOKOUT  FLURRIES  23  21  93 NW8       30.00R WCI  14
TORONTO        MOCLDY    36  32  87 SW9       30.17R
BIG TROUT LK   FLURRIES  16  14  93 NW9       29.95R WCI   4
PICKLE LAKE    FLURRIES  19  16  86 NW5       29.96R WCI  13
DRYDEN         FLURRIES  21  21 100 W6        30.01R WCI  14
KENORA         FLURRIES  16  12  86 NW12      30.06R WCI   3
$$
                *** MANITOBA***

CITY           SKY/WX    TMP DP  RH WIND       PRES   REMARKS
BRANDON        MOCLDY    -8 -11  84 W14       30.17  WCI -28
DAUPHIN        FLURRIES  -2  -8  78 W9        30.21R WCI -18
ISLAND LAKE    FLURRIES   1  -4  78 NW13G20   30.08R WCI -16
PILOT MOUND      N/A     -4  -8  84 W8          N/A  WCI -19
THE PAS        CLEAR    -15 -18  84 W3        30.18
THOMPSON       PTCLDY   -22 -29  69 W3        30.10
WINNIPEG       FLURRIES  10   7  85 NE9       30.18R WCI  -2
CHURCHILL      LGT SNOW  -8 -13  77 W14       30.01  WCI -28
GILLAM         FLURRIES -11 -17  77 W7        30.05S WCI -26
$$
                ***SASKATCHEWAN***

CITY           SKY/WX    TMP DP  RH WIND       PRES   REMARKS
ESTEVAN        FLURRIES  -4  -9  77 NW6       30.16R WCI -16
KINDERSLEY     MOCLDY     0  -2  92 S5        30.10R WCI -10
LLOYDMINSTER   CLEAR      1   0  92 CALM      30.04S
PRINCE ALBERT  MOCLDY   -17 -22  76 CALM      30.17F
REGINA         CLOUDY     1  -2  85 NW2       30.15S
YORKTON        CLOUDY    -8 -11  84 N9        30.16R WCI -25
N. BATTLEFORD  CLOUDY     5   3  92 SE6       30.14S WCI  -6



USA.gov is the U.S. government's official web portal to all federal, state and local government web resources and services.